Flag for U.S.A. Weather past 2 weeks in Virginia Beach, Virginia, U.S.A.

Now
34 °F

Overcast.


Feels Like: 23 °F
Forecast: 33 / 38 °F
Wind: 18 mph from Northwest

Location: Virginia Beach - Oceana

Current Time: Jan 27, 2015 at 1:01:51 PM

Latest Report: Jan 27, 2015 at 11:56 AM


Visibility: 10 mi

Pressure: 29.76 "Hg

Humidity: 79%

Dew point: 28 °F

Location of Virginia BeachLocation

Historic Weather in Virginia Beach — Graph

°F

Virginia Beach temperature yesterday

Maximum temperature yesterday: 50 °F (at 10:56 AM)
Minimum temperature yesterday: 35 °F (at 11:56 PM)
Average temperature yesterday: 43 °F

Past Weeks' High & Low Weather Summary

 TemperatureHumidityPressure
High63 °F (Jan 12, 5:56 PM)97% (Jan 22, 3:56 AM)30.46 "Hg (Jan 22, 3:56 AM)
Low30 °F (Jan 23, 1:56 AM)38% (Jan 20, 12:56 PM)29.40 "Hg (Jan 24, 12:56 PM)
Average42 °F77%30.03 "Hg
* Reported Jan 12 11:56 AM — Jan 27 11:56 AM, Virginia Beach, Weather by CustomWeather, © 2014

Note: Actual official high and low records may vary slightly from our data, if they occured in-between our weather recording intervals... More about our weather records

Advertising

Virginia Beach weather history for previous 24 hours

 ConditionsComfort  
Time TempWeatherWind HumidityBarometerVisibility
11:56 AM
Jan 27
34 °FOvercast.18 mph79%29.76 "Hg10 mi
10:56 AM34 °FOvercast.16 mph79%29.77 "Hg10 mi
9:56 AM34 °FOvercast.16 mph79%29.76 "Hg10 mi
8:56 AM33 °FOvercast.16 mph82%29.75 "Hg10 mi
7:56 AM33 °FLight snow. Overcast.18 mph82%29.74 "Hg7 mi
6:56 AM32 °FLight snow. Ice fog.15 mph85%29.72 "Hg4 mi
6:03 AM32 °FLight snow. Ice fog.14 mph85%29.68 "Hg4 mi
5:56 AM32 °FLight snow. Ice fog.16 mph85%29.69 "Hg2 mi
4:56 AM32 °FLight snow. Ice fog.16 mph88%29.67 "Hg2 mi
3:56 AM33 °FLight snow. Fog.15 mph88%29.66 "Hg2 mi
2:56 AM34 °FLight snow. Fog.16 mph88%29.66 "Hg2 mi
2:03 AM35 °FLight snow. Fog.21 mph85%29.63 "Hg4 mi
1:56 AM35 °FLight snow. Fog.22 mph85%29.63 "Hg3 mi
12:56 AM35 °FLight snow. Fog.17 mph88%29.62 "Hg3 mi
11:56 PM
Jan 26
35 °FLight rain. Fog.18 mph88%29.62 "Hg3 mi
10:56 PM37 °FRain. Fog.17 mph89%29.61 "Hg4 mi
9:56 PM40 °FOvercast.23 mph80%29.60 "Hg10 mi
8:56 PM41 °FLow clouds.28 mph82%29.59 "Hg10 mi
7:56 PM42 °FLow clouds.22 mph82%29.59 "Hg10 mi
6:56 PM42 °FFog.18 mph85%29.59 "Hg6 mi
5:56 PM42 °FLow clouds.21 mph89%29.57 "Hg8 mi
4:56 PM44 °FLow clouds.21 mph82%29.56 "Hg7 mi
3:56 PM45 °FOvercast.16 mph82%29.55 "Hg9 mi
2:56 PM46 °FOvercast.12 mph79%29.54 "Hg10 mi
1:56 PM47 °FBroken clouds.10 mph80%29.55 "Hg10 mi
Weather by CustomWeather, © 2014

See weather overviewHow to use our weather pages